TimeMST,TemperatureF,Dew PointF,Humidity,Sea Level PressureIn,VisibilityMPH,Wind Direction,Wind SpeedMPH,Gust SpeedMPH,PrecipitationIn,Events,Conditions,WindDirDegrees,DateUTC
12:00 AM,19.9,18.3,93,30.26,-9999.0,NNE,3.5,-,N/A,,Unknown,30,2013-11-10 07:00:00
1:00 AM,19.8,18.1,93,30.25,-9999.0,NE,3.5,-,N/A,,Unknown,40,2013-11-10 08:00:00
2:00 AM,19.4,17.6,93,30.25,-9999.0,NNE,2.3,-,N/A,,Unknown,30,2013-11-10 09:00:00
3:00 AM,20.1,18.3,93,30.25,-9999.0,NNE,3.5,-,N/A,,Unknown,30,2013-11-10 10:00:00
4:00 AM,19.4,17.6,93,30.25,-9999.0,NE,4.6,-,N/A,,Unknown,50,2013-11-10 11:00:00
5:00 AM,18,16,90,30.25,,NNE,3.5,,,,,30,2013-11-10 12:00:00
5:00 AM,18.1,16.3,93,30.25,-9999.0,NNE,3.5,-,N/A,,Unknown,30,2013-11-10 12:00:00
6:00 AM,17.8,16.0,93,30.27,-9999.0,NNE,2.3,-,N/A,,Unknown,20,2013-11-10 13:00:00
7:00 AM,17.2,15.1,91,30.30,-9999.0,NE,3.5,-,N/A,,Unknown,50,2013-11-10 14:00:00
8:00 AM,16.3,13.5,88,30.32,-9999.0,NE,3.5,-,N/A,,Unknown,50,2013-11-10 15:00:00
9:00 AM,15.4,12.4,88,30.33,-9999.0,NE,2.3,-,N/A,,Unknown,40,2013-11-10 16:00:00
10:00 AM,15.6,11.8,85,30.34,-9999.0,ENE,3.5,-,N/A,,Unknown,70,2013-11-10 17:00:00
11:00 AM,16,11,75,30.34,,East,2.3,,,,,80,2013-11-10 18:00:00
11:00 AM,16.0,11.5,82,30.34,-9999.0,East,2.3,-,N/A,,Unknown,80,2013-11-10 18:00:00
12:00 PM,17.4,12.0,79,30.34,-9999.0,ENE,1.2,-,N/A,,Unknown,70,2013-11-10 19:00:00
1:00 PM,17.2,12.0,80,30.32,-9999.0,NNE,1.2,-,N/A,,Unknown,30,2013-11-10 20:00:00
2:00 PM,17.8,12.2,79,30.32,-9999.0,ENE,1.2,-,N/A,,Unknown,70,2013-11-10 21:00:00
3:00 PM,17.6,12.4,80,30.32,-9999.0,ENE,1.2,-,N/A,,Unknown,70,2013-11-10 22:00:00
4:00 PM,17.4,12.4,81,30.34,-9999.0,Calm,Calm,-,N/A,,Unknown,0,2013-11-10 23:00:00
5:00 PM,15,11,77,30.37,,South,1.2,,,,,180,2013-11-11 00:00:00
5:00 PM,14.5,10.9,86,30.37,-9999.0,South,1.2,-,N/A,,Unknown,180,2013-11-11 00:00:00
6:00 PM,10.2,7.7,90,30.39,-9999.0,SSW,1.2,-,N/A,,Unknown,210,2013-11-11 01:00:00
7:00 PM,6.8,4.5,90,30.41,-9999.0,SW,1.2,-,N/A,,Unknown,230,2013-11-11 02:00:00
8:00 PM,3.9,1.2,89,30.43,-9999.0,Calm,Calm,-,N/A,,Unknown,0,2013-11-11 03:00:00
9:00 PM,1.4,-1.5,88,30.45,-9999.0,Calm,Calm,-,N/A,,Unknown,0,2013-11-11 04:00:00
10:00 PM,1.4,-1.5,88,30.45,-9999.0,ENE,1.2,-,N/A,,Unknown,60,2013-11-11 05:00:00
11:00 PM,19,17,87,30.39,,West,8.1,,,,,260,2013-11-11 06:00:00
11:00 PM,19.4,16.9,90,30.39,-9999.0,West,8.1,-,N/A,,Unknown,260,2013-11-11 06:00:00